Location: Rock Island IL
(41.5000°N, 90.5500°W)
Time: 21:06:58
(UTC-05:00)

Daily predictions for brighter satellites

Satellite Brightness Start Highest point End
(mag) Time Altitude Azimuth Time Altitude Azimuth Time Altitude Azimuth
Cosmos 2322 Rocket 2.2 18:38:19 10° NNW 18:43:54 64° ENE 18:49:28 10° SE
Cosmos 1626 3.0 18:42:44 10° NNE 18:46:01 29° ENE 18:49:18 10° SE
deb Kosmos-1763 4.2 18:44:09 10° S 18:47:55 65° ESE 18:51:44 10° NNE
Cosmos 2218 Rocket 4.0 18:42:29 10° S 18:48:29 57° E 18:54:29 10° NNE
Cosmos 1470 4.2 18:44:58 10° SSW 18:48:47 43° WNW 18:52:37 10° N
Aureole 1 Rocket 3.9 18:43:30 10° S 18:50:22 67° ESE 18:55:35 10° NNE
BREEZE-M DEB (TANK) 2.5 18:48:55 10° SSW 18:50:50 23° SE 18:52:34 10° E
Meteor 1-11 4.4 18:45:12 10° N 18:50:55 55° ENE 18:56:30 10° SSE
Lacrosse 5 rocket 3.2 18:47:45 10° W 18:51:44 29° NNW 18:55:34 10° NNE
NOSS 3-4 (A) 4.4 18:45:10 10° NW 18:52:11 65° WSW 18:59:40 10° SSE
NOSS 3-4 (C) 4.4 18:45:16 10° NW 18:52:17 66° WSW 18:59:47 10° SSE
Cosmos 1408 Rocket 3.6 18:47:51 10° N 18:52:18 83° E 18:56:46 10° S
Cosmos 1452 Rocket 4.5 18:48:32 10° N 18:52:57 27° ENE 18:57:21 10° ESE
Meteor 2-15 Rocket 4.4 18:47:08 10° N 18:53:14 73° E 18:59:20 10° SSE
CZ-4 R/B 4.4 18:49:15 10° SSE 18:53:22 74° ENE 18:57:30 10° N
EO 1 Del DPAF 3.2 18:50:16 10° NNE 18:54:07 67° ESE 18:57:55 10° S
USA 267 4.3 18:50:59 10° ENE 18:56:18 26° SE 19:01:34 10° S
Cosmos 1328 3.7 18:53:40 10° N 18:57:40 82° E 19:01:37 10° S
Atlas Centaur 2 3.5 18:55:13 10° SW 18:59:05 24° S 19:03:42 10° ESE
Cosmos 1727 Rocket 4.2 18:53:54 10° N 19:00:06 51° ENE 19:06:14 10° SSE
DELTA 2 R/B (1) 3.7 18:55:06 10° W 19:00:41 74° S 19:05:56 12° E
Cosmos 2322 4.5 18:57:54 10° N 19:03:01 32° ENE 19:08:06 10° ESE
MONITOR-E 4.1 19:01:34 10° SSE 19:04:37 67° ENE 19:07:41 10° N
Meteor 1-16 Rocket 4.1 19:00:32 10° S 19:05:50 86° W 19:11:12 10° N
BREEZE M DEB (TANK) 3.9 19:02:32 10° WNW 19:08:06 28° N 19:10:26 12° NE
YAOGAN 1 3.0 19:04:34 10° S 19:08:52 67° WSW 19:13:11 10° NNW
ALOS 2.5 19:05:51 10° SE 19:10:19 48° ENE 19:14:50 10° N
CZ-4C R/B 3.7 19:09:32 10° SE 19:11:56 13° ESE 19:12:17 13° E
GP-B 3.0 19:09:34 10° N 19:14:02 83° E 19:18:28 10° S
FENGYUN 3A 3.7 19:09:46 10° SSE 19:15:00 55° ENE 19:20:17 10° N
Cosmos 1703 3.3 19:12:01 10° N 19:15:53 53° E 19:19:42 10° SSE
Abrixas rocket 3.0 19:12:57 10° W 19:16:08 45° NNW 19:18:42 14° NE
CZ-4 R/B 3.3 19:12:26 10° SSW 19:16:21 36° W 19:20:14 10° NNW
SL-08 R/B 4.4 19:11:48 10° S 19:17:59 83° E 19:24:08 10° N
MOS 1 4.5 19:12:56 10° SSE 19:18:36 80° WSW 19:24:18 10° NNW
Cosmos 1400 Rocket 2.7 19:21:03 10° N 19:25:09 85° E 19:29:08 10° S
Tiangong 1 2.9 19:25:38 10° W 19:27:47 21° SSW 19:29:46 11° SSE
Cosmos 2219 Rocket 3.5 19:24:02 10° N 19:27:58 19° NE 19:29:17 18° ENE
SKYMED 2 4.2 19:27:23 10° N 19:31:41 59° WNW 19:35:56 10° SSW
Thor Agena Rocket 3.6 19:27:16 10° NNE 19:32:15 51° E 19:37:09 10° S
USA 234 4.4 19:28:01 15° ENE 19:32:15 28° NNE 19:37:36 10° NW
GRACE-2 3.6 19:33:08 10° S 19:35:42 87° W 19:38:18 10° N
SL-16 R/B 3.3 19:32:02 10° NW 19:37:25 46° WSW 19:42:48 10° S
GRACE-1 3.7 19:34:58 10° S 19:37:32 78° W 19:40:08 10° N
Cosmos 1908 3.2 19:34:39 10° S 19:38:30 57° E 19:42:21 10° NNE
Cosmos 1743 Rocket 4.1 19:34:30 10° NNW 19:38:50 62° W 19:43:10 10° S
Cosmos 2237 4.4 19:33:16 10° NNW 19:38:51 50° ENE 19:42:59 18° SE
Cosmos 1420 Rocket 4.2 19:35:24 10° N 19:40:34 49° ENE 19:44:26 17° SE
Iridium 4 Rocket 3.7 19:35:37 10° SSE 19:40:51 55° E 19:46:29 10° N
Cosmos 2151 3.1 19:37:33 10° NNW 19:41:51 75° W 19:46:05 10° S
Envisat 4.2 19:46:16 23° ENE 19:46:16 23° ENE 19:49:54 10° NNE
H-2A R/B 2.8 19:43:00 14° SSE 19:46:08 56° ENE 19:49:58 10° N
Cosmos 1842 Rocket 4.2 19:41:44 10° SSW 19:46:09 60° W 19:50:34 10° N
Delta 2 Rocket 4.2 19:44:17 10° SW 19:47:17 25° S 19:47:45 25° SSE
Cosmos 44 4.1 19:45:02 10° S 19:47:53 26° SE 19:47:53 26° SE
Resurs 01 Rocket 3.0 19:49:59 22° NE 19:49:59 22° NE 19:52:22 10° NNE
GENESIS II 4.1 19:46:14 10° SSW 19:50:10 67° ESE 19:51:48 33° NE
Cosmos 2237 Rocket 3.8 19:52:13 10° N 19:55:40 18° NE 19:55:40 18° NE
FREGAT/IRIS 2.5 19:56:03 57° S 19:56:35 86° WSW 19:59:36 10° NNW
ISS -0.8 19:55:35 10° WSW 19:56:54 12° SW 19:58:12 10° SSW
Cosmos 2221 2.4 19:53:19 10° S 19:57:36 80° E 20:01:58 10° N
Cosmos 44 Rocket 3.8 19:55:01 10° S 19:58:42 35° SE 19:58:42 35° SE
Cosmos 1535 Rocket 4.4 19:58:24 10° S 20:04:25 60° E 20:10:25 10° NNE
Cosmos 1315 Rocket 3.2 20:02:03 10° NNW 20:06:04 63° W 20:10:06 10° S
Cosmos 158 Rocket 3.8 20:03:33 10° SSW 20:08:32 76° ESE 20:13:42 10° NNE
Cosmos 921 Rocket 3.2 20:04:21 10° NNW 20:08:50 74° WSW 20:11:50 20° S
HJ-1C 4.0 20:10:02 49° N 20:10:02 49° N 20:12:36 10° N
CSL-04 DEB 4.3 20:08:24 49° SSE 20:09:27 78° ENE 20:13:32 10° N
BREEZE-M DEB (TANK) 3.8 20:08:28 10° W 20:09:31 15° SW 20:09:31 15° SW
COSMOS 2428 2.6 20:09:16 10° NNW 20:14:55 65° ENE 20:16:20 48° ESE
Cosmos 1269 Rocket 3.9 20:09:53 10° S 20:15:03 62° ESE 20:16:59 38° NE
BREEZE-M DEB (TANK) 4.5 20:14:22 10° WNW 20:15:07 17° WNW 20:15:07 17° WNW
Cosmos 2333 Rocket 2.9 20:13:10 10° N 20:18:02 37° NE 20:18:02 37° NE
RESURS DK-1 3.3 20:17:23 10° NW 20:21:22 46° WSW 20:23:04 29° SSW
Cosmos 2098 Rocket 3.2 20:17:22 10° S 20:21:26 82° W 20:26:42 10° N
Cosmos 2360 Rocket 3.0 20:16:16 10° NW 20:21:43 50° WSW 20:27:09 10° S
Cosmos 2219 3.1 20:20:45 10° SSW 20:26:27 69° ESE 20:27:40 53° NE
MOS 1-B Rocket 3.7 20:25:31 50° SE 20:26:58 72° ENE 20:32:52 10° N
SL-24 R/B - RUBIN 2 4.4 20:25:01 10° NW 20:29:40 49° WSW 20:30:52 38° SSW
SJ-6B 3.5 20:30:52 47° WSW 20:31:08 48° W 20:34:47 10° NNW
Lacrosse 5 rocket 4.1 20:30:49 10° NNW 20:32:10 11° NNW 20:33:24 10° N
NOSS 0 Rocket 4.3 20:27:12 10° NNW 20:32:34 44° NE 20:32:34 44° NE
SL-8 R/B 3.8 20:29:30 10° WSW 20:34:19 67° NNW 20:34:26 66° NNW
Cosmos 1821 Rocket 4.2 20:30:12 10° SSW 20:36:17 69° W 20:42:31 10° N
Sich 1 4.2 20:32:33 10° N 20:35:07 35° N 20:35:07 35° N
Cosmos 1805 Rocket 4.1 20:35:03 10° NNW 20:39:20 56° W 20:39:44 53° WSW
USA 267 3.2 20:37:01 39° NE 20:39:45 84° NW 20:46:17 10° SW
Cosmos 1934 Rocket 4.1 20:39:14 10° S 20:45:34 78° W 20:51:59 10° N
DELTA 2 R/B (1) 3.9 20:41:29 10° W 20:46:42 58° SSW 20:46:42 58° SSW
Atlas Centaur 2 3.7 20:42:53 10° WSW 20:47:12 26° S 20:47:12 26° S
Spot 2 Rocket 4.2 20:51:35 45° N 20:51:35 45° N 20:55:05 10° NNW
Gbstr 26 Del rocket 4.0 20:48:19 10° NW 20:53:04 60° N 20:53:04 60° N
CZ-4C R/B 2.8 20:54:10 10° SW 20:57:35 44° SW 20:57:35 44° SW
Cosmos 2123 Rocket 4.3 20:58:04 10° NNW 21:04:13 65° W 21:05:32 52° SW
Cosmos 2219 Rocket 2.9 21:06:54 10° NNW 21:11:01 49° NW 21:11:01 49° NW
BREEZE-M DEB (TANK) 3.7 21:00:24 10° WNW 21:11:54 70° NW 21:11:54 70° NW
USA 234 3.6 21:15:23 55° N 21:15:23 55° N 21:20:53 10° NW
Resurs 01 Rocket 4.1 21:27:35 19° NW 21:27:35 19° NW 21:29:05 10° NNW
Cosmos 2237 Rocket 3.9 21:35:04 10° NNW 21:37:31 27° NNW 21:37:31 27° NNW
Cosmos 2333 Rocket 4.3 21:57:35 10° NW 22:00:04 23° WNW 22:00:04 23° WNW
